EHI
0 0 0 0 0 0 0 0 0 0 1 3 3 1 0 0 0 0 0 0 0 1 3 5 4 1 0 0 0 0 0 0 0 0 1 2 1 0 1 1 1 0 0
0 0 0 0 0 0 0 0 0 0 1 2 2 1 0 0 0 0 1 2 1 2 4 5 3 1 0 0 0 0 0 0 0 0 1 2 2 1 0 1 1 1 0
0 0 0 0 0 0 0 0 0 0 1 1 1 1 1 1 1 2 4 5 5 5 6 5 3 1 1 0 0 0 0 0 0 0 0 1 1 1 0 1 1 1 0
0 0 0 0 0 1 1 1 0 0 1 1 1 1 2 2 2 3 5 7 7 7 6 4 3 3 2 1 0 0 0 0 0 0 0 0 0 0 0 0 0 0 0
0 0 0 0 0 1 2 1 0 0 0 0 0 1 2 1 1 3 4 5 6 6 4 3 3 4 3 1 0 0 0 0 0 0 0 0 0 0 0 0 0 0 0
0 0 0 0 0 1 2 2 1 1 1 1 1 1 1 1 1 2 2 2 3 3 3 3 2 2 1 0 0 0 0 0 0 0 0 0 0 1 1 0 0 1 1
0 0 0 0 0 0 1 2 3 4 4 3 4 4 3 2 3 3 2 1 2 2 3 3 2 1 0 0 0 0 0 0 0 0 0 0 1 2 2 1 1 2 3
0 0 0 0 0 0 1 1 2 4 5 5 5 5 4 3 4 4 2 2 1 2 3 3 3 1 1 1 1 1 0 0 0 0 0 0 1 2 3 3 3 4 3
0 0 0 0 0 0 0 0 1 1 2 4 4 3 3 3 5 4 3 2 2 3 3 3 3 2 2 3 3 2 0 0 0 0 0 0 0 1 3 4 4 3 2
0 0 0 0 0 0 0 0 0 0 0 1 1 1 1 3 4 4 4 3 2 2 3 3 2 1 1 3 4 2 0 0 0 0 0 0 0 1 2 3 3 3 2
0 0 0 0 0 0 0 0 0 0 0 0 0 0 0 1 2 2 3 2 1 1 1 1 1 0 1 2 2 1 0 0 0 0 0 0 0 0 1 1 2 3 2
0 0 0 0 0 0 0 0 0 0 0 0 0 0 0 0 0 1 1 1 0 0 0 0 1 1 1 1 0 0 0 0 0 0 0 0 0 0 0 1 1 2 2
0 0 0 0 0 0 0 0 0 0 0 0 0 0 0 0 0 0 0 0 0 0 0 0 1 2 2 1 0 0 0 0 0 0 0 0 1 0 0 0 0 0 1
0 0 0 0 0 0 0 0 0 0 0 0 0 0 0 0 0 0 0 0 0 0 0 0 1 1 1 0 0 0 0 0 0 0 0 0 0 0 0 0 0 0 0
0 0 0 0 0 0 0 0 0 0 0 0 0 0 0 0 0 0 0 0 0 0 0 0 0 0 0 0 0 0 0 0 0 0 0 0 0 0 0 0 0 0 0
0 0 0 0 0 0 0 0 0 0 0 0 0 0 0 0 0 0 0 0 0 0 0 0 0 0 0 0 0 0 0 0 0 0 0 0 0 0 0 0 0 0 0
0 0 0 0 0 0 0 0 0 0 0 0 0 0 0 0 0 0 0 0 0 0 0 0 0 0 0 0 0 0 0 0 0 0 0 0 0 0 0 0 0 0 0
0 0 0 0 0 0 0 0 0 0 0 0 0 0 0 0 0 0 0 0 0 0 0 0 0 0 0 0 0 0 0 0 0 0 0 0 0 0 0 0 0 0 0
0 0 0 0 0 0 0 0 0 0 0 0 0 0 0 0 0 0 0 0 0 0 0 0 0 0 0 0 0 0 0 0 0 0 0 0 0 0 0 0 0 0 0
0 0 0 0 0 0 0 0 0 0 0 0 0 0 0 0 0 0 0 0 0 0 0 0 0 0 0 0 0 0 0 0 0 0 0 0 0 0 0 0 0 0 0
0 0 1 1 1 1 0 0 0 0 0 0 0 0 0 0 0 0 0 0 0 0 0 0 0 0 0 0 0 0 0 0 0 0 0 0 0 0 0 0 0 0 0
0 0 1 2 2 2 1 0 0 0 0 0 0 0 0 0 0 0 0 0 0 0 0 0 0 0 0 0 0 0 0 0 0 0 0 0 0 0 0 0 0 0 0
0 0 1 3 3 3 2 1 0 0 0 0 0 0 0 0 0 0 0 0 0 0 0 0 0 0 0 0 0 0 0 0 0 0 0 0 0 0 0 0 0 0 0
0 0 1 2 3 3 2 1 0 0 0 0 0 0 0 0 0 0 0 0 0 0 0 0 0 0 0 0 0 0 0 0 0 0 0 0 0 0 0 0 0 0 0
0 0 0 1 2 3 2 1 0 0 0 0 0 0 0 0 0 0 0 0 0 0 0 0 0 0 0 0 0 0 0 0 0 0 0 0 0 0 0 0 0 0 0
0 0 0 0 1 2 2 1 0 0 0 0 0 0 0 0 0 0 0 0 0 0 0 0 0 0 0 0 0 0 0 0 0 0 0 0 0 0 0 0 0 0 0
Wind_Speed
2 2 2 2 3 3 4 5 5 6 6 6 7 7 7 8 8 8 9 9 10 10 10 10 10 10 11 11 11 10 10 10 10 10 10 10 10 10 9 9 8 5 8
1 1 0 2 3 4 4 5 6 6 6 6 6 7 7 8 8 8 8 9 9 10 9 9 10 10 11 10 10 10 10 10 10 10 9 8 8 9 9 8 7 5 8
1 0 1 3 4 4 5 5 5 6 6 6 7 7 7 8 8 8 8 9 9 9 9 9 10 10 10 10 10 10 10 10 10 10 9 5 5 8 8 8 8 8 8
2 1 1 3 4 5 5 5 5 6 6 7 7 7 7 8 8 8 8 9 9 9 10 9 10 10 10 10 10 10 10 10 10 9 5 4 4 7 7 7 7 7 7
2 1 1 3 4 4 4 4 4 5 6 6 7 7 7 8 8 8 8 8 9 9 9 9 9 10 10 10 10 10 10 10 10 8 5 4 3 6 7 6 6 6 6
2 1 1 4 4 4 4 4 4 5 5 6 6 7 7 7 8 8 8 9 9 9 9 9 10 10 10 10 10 10 10 10 9 5 4 4 3 6 7 6 6 6 6
2 1 1 4 4 4 5 5 5 5 6 6 6 6 7 7 8 8 8 9 9 9 9 9 10 10 10 10 10 10 10 10 6 5 4 3 4 7 7 7 6 6 6
2 1 2 3 4 5 5 6 6 7 7 7 7 7 7 7 8 8 8 8 8 8 9 9 9 10 10 10 10 10 10 9 6 5 4 3 6 7 8 7 7 7 6
2 2 2 3 3 4 5 6 7 7 7 7 7 7 7 7 7 8 8 7 7 8 8 9 9 10 10 10 10 10 10 9 5 3 4 3 6 7 7 7 7 7 7
2 2 2 3 3 3 3 5 7 7 7 7 7 8 8 8 7 7 7 7 7 8 8 9 9 10 10 10 11 11 10 8 5 4 2 4 7 8 8 8 8 8 8
1 1 1 2 2 2 2 4 5 6 7 7 6 8 7 4 4 4 6 7 7 8 8 9 10 10 10 10 11 11 8 4 4 3 3 6 8 8 9 9 9 9 8
1 1 0 1 1 2 2 3 3 3 4 4 4 4 4 3 3 5 6 8 8 9 9 10 10 9 8 5 7 8 4 5 4 3 3 8 8 8 8 9 9 9 9
2 1 1 1 1 1 1 2 2 2 3 3 4 4 3 3 3 4 3 4 5 7 5 7 6 4 5 4 4 4 5 4 3 3 4 8 8 8 8 9 9 9 9
2 2 1 2 2 1 1 2 2 2 2 2 2 3 3 2 3 3 3 3 3 3 4 4 3 5 5 5 5 5 5 4 3 3 5 9 9 9 9 10 10 9 10
3 2 2 3 3 2 2 1 2 1 1 1 2 2 3 3 3 3 2 3 3 3 3 3 4 4 5 5 5 5 5 5 5 5 4 10 10 10 9 10 10 9 9
3 3 2 3 3 3 2 1 1 1 1 1 2 2 3 2 2 3 3 3 3 3 3 3 4 4 4 4 5 5 5 4 4 5 4 6 10 10 10 10 10 10 10
4 3 3 3 3 3 3 2 2 2 2 2 1 2 3 3 3 3 3 2 2 3 3 4 4 4 4 4 5 4 4 4 4 5 5 4 5 8 10 10 10 10 10
4 4 3 4 4 3 3 2 2 2 2 2 1 2 3 3 3 3 3 2 2 3 3 3 3 4 4 3 3 3 3 3 4 4 4 4 4 4 6 10 10 9 9
5 5 4 4 4 4 3 3 2 2 2 1 1 1 2 2 3 3 2 2 3 3 3 3 3 2 3 3 3 3 3 3 3 4 4 4 4 4 4 6 9 9 9
4 4 4 4 4 4 3 3 2 2 1 1 1 1 2 2 3 3 2 2 3 3 3 3 3 3 3 2 4 4 3 3 3 3 3 3 3 4 4 4 4 6 9
4 5 5 5 4 4 2 2 2 1 0 1 0 1 2 2 3 3 2 3 3 3 3 3 3 4 2 2 3 3 3 3 3 3 3 3 3 3 4 4 3 3 4
5 5 5 6 5 5 3 2 2 2 1 0 0 0 1 2 3 3 3 3 3 3 3 3 3 2 1 1 2 2 2 3 3 3 2 3 3 3 3 3 3 3 3
6 7 6 6 5 5 4 3 2 2 2 1 0 0 1 2 2 3 4 3 3 3 3 3 3 4 2 1 1 2 2 1 1 2 2 2 3 2 2 2 3 3 3
7 5 5 5 5 5 5 4 4 3 2 3 2 1 1 1 2 3 3 4 3 3 3 3 3 3 3 2 1 1 1 3 2 1 2 2 2 2 2 2 2 2 2
4 4 4 5 4 4 5 5 5 3 2 1 1 1 1 1 1 2 3 3 3 3 3 3 3 3 2 3 2 2 1 1 1 2 1 2 2 2 1 1 1 1 2
2 3 3 4 3 4 5 5 5 5 4 3 2 2 1 1 1 2 3 3 3 3 3 3 3 4 3 2 2 2 3 2 2 2 2 1 1 2 1 1 1 1 1
Wind_Direction
265 269 273 87 84 84 87 82 81 80 80 81 85 86 84 84 85 87 89 89 87 86 85 83 85 85 89 89 89 91 95 97 98 97 97 96 97 99 101 102 102 99 102
193 250 125 87 77 78 86 87 84 81 83 85 88 87 86 86 87 88 90 88 87 86 85 84 86 85 86 87 90 92 91 91 92 91 89 88 94 98 100 102 109 109 109
113 61 79 83 76 70 79 84 85 85 85 86 88 87 89 89 87 88 91 92 90 88 85 84 87 88 88 88 88 90 90 90 88 85 79 64 74 91 97 99 106 108 111
115 64 68 85 80 75 76 83 84 87 87 85 89 89 88 89 89 90 94 96 94 90 86 84 86 88 86 86 86 87 87 85 84 80 69 63 69 85 89 93 97 100 105
89 54 52 90 85 81 75 77 82 88 91 89 90 92 90 89 89 87 91 94 95 91 86 83 84 87 87 85 84 86 87 83 80 74 65 60 63 83 87 91 93 97 102
90 45 49 91 87 79 70 63 77 98 102 96 93 93 90 89 88 87 89 91 93 91 87 85 84 86 87 86 85 85 88 82 74 64 60 58 62 78 83 88 91 94 96
107 36 35 90 81 76 65 61 82 96 100 95 90 90 88 86 87 87 88 88 90 89 86 87 85 83 83 82 83 81 83 80 72 66 59 54 64 77 79 79 86 92 94
117 79 44 71 73 70 63 62 75 87 90 88 85 83 81 82 82 82 85 86 87 89 87 87 87 83 80 81 81 79 79 77 72 68 59 49 67 73 75 74 75 81 86
89 75 45 33 39 52 62 65 73 79 81 82 80 76 76 77 77 78 82 87 90 92 90 87 88 83 78 76 77 76 74 72 62 55 63 52 68 74 75 72 73 77 83
71 54 41 32 33 33 36 59 73 76 75 75 72 72 71 68 66 66 69 79 89 92 92 88 87 81 78 77 73 71 69 64 51 47 38 55 66 69 72 72 72 75 79
96 26 32 34 32 38 45 58 58 62 59 57 55 60 59 48 43 48 60 76 84 91 93 91 88 81 75 71 71 68 63 53 50 41 39 60 64 67 70 72 73 72 74
198 223 161 54 43 46 55 57 48 52 49 49 47 50 54 52 43 50 51 67 76 83 84 84 83 76 69 59 62 62 53 50 47 36 48 62 64 65 67 70 72 70 68
201 200 181 164 109 95 70 69 58 51 47 43 46 52 60 55 45 44 43 44 56 67 66 70 68 62 62 60 57 53 50 49 41 34 45 59 62 66 69 69 69 71 69
174 201 189 158 138 132 104 85 83 72 59 50 45 56 69 66 55 49 49 47 53 61 72 71 72 68 66 63 62 57 51 47 39 35 44 55 60 63 69 69 67 69 70
180 199 189 158 149 143 118 99 93 92 90 82 71 68 84 85 75 65 57 56 61 67 77 81 82 78 71 64 60 62 56 49 44 40 35 48 54 58 63 65 65 66 67
193 191 172 153 149 135 129 121 115 110 104 90 82 87 93 96 96 89 76 68 66 74 81 85 84 81 71 67 59 53 53 50 46 43 38 37 43 50 56 59 60 62 65
190 176 168 160 139 135 136 134 116 113 107 95 90 98 102 101 102 100 95 85 78 81 85 87 80 77 75 67 58 48 46 43 46 42 39 35 30 40 50 56 55 56 57
170 164 172 159 141 139 131 120 108 101 106 110 102 100 101 103 106 105 103 98 94 88 86 91 86 85 75 69 60 45 40 37 41 42 43 38 33 29 36 47 50 49 50
174 167 165 153 149 141 126 111 104 93 94 104 106 108 116 116 116 115 112 104 104 96 90 95 78 87 91 82 73 54 38 35 31 40 40 36 36 34 30 37 41 42 47
171 166 164 154 147 130 112 93 79 74 65 64 102 137 136 129 127 120 117 110 109 102 89 90 93 75 80 85 76 56 36 29 32 33 31 33 33 35 34 34 31 28 35
167 169 174 162 159 144 133 130 125 134 108 61 83 128 142 138 136 135 129 121 121 121 123 116 105 94 76 75 73 43 21 30 37 29 27 36 35 31 36 34 31 26 18
185 186 186 179 172 174 167 152 143 134 131 127 6 114 158 157 156 155 145 143 140 126 124 127 120 110 89 74 104 90 24 1 7 21 23 36 30 28 33 32 29 27 17
196 196 192 188 182 180 160 122 90 73 57 51 7 238 217 175 164 158 156 148 148 144 153 156 147 139 143 85 87 131 135 204 321 347 11 24 22 29 18 15 24 16 15
207 197 188 181 181 178 163 161 161 166 181 208 204 211 217 190 180 170 162 158 157 154 159 171 159 149 144 151 100 70 133 152 143 335 335 353 13 19 3 6 7 2 5
200 188 183 172 178 178 177 176 172 176 186 179 166 187 208 219 190 178 169 163 167 168 172 171 158 158 157 160 160 148 110 79 115 148 263 317 344 334 336 332 335 339 351
161 166 164 163 181 182 181 179 182 185 181 172 186 197 208 220 213 191 176 176 178 176 181 182 173 170 172 167 167 162 162 163 175 164 190 242 282 295 309 306 295 304 315